EW7943 Weather Reports


Display with metric or nautical units.
time (UTC)temp
F
wind
direction
speed
MPH
gust
MPH
rain 1hr
in
rain 24hr
in
rain mn
in
humidity
%
barometer
mb
20260510033032 67 115 0.0 0.0 0.00 0.00 0.00 60 1019.4
20260510031554 66 106 0.0 0.0 0.00 0.00 0.00 63 1019.4
20260510030016 67 114 0.0 0.0 0.00 0.00 0.00 62 1019.6
20260510024528 66 103 0.0 0.0 0.00 0.00 0.00 64 1019.9
20260510023054 66 96 0.0 0.0 0.00 0.00 0.00 64 1020.1
20260510021503 65 64 0.0 0.0 0.00 0.00 0.00 66 1020.3
20260510020028 64 123 0.0 0.0 0.00 0.00 0.00 67 1020.5
20260510014551 64 123 0.0 0.0 0.00 0.00 0.00 67 1020.7
20260510013007 64 95 0.0 0.0 0.00 0.00 0.00 69 1020.8
20260510011528 63 100 0.0 0.0 0.00 0.00 0.00 70 1020.9
20260510010033 62 125 0.0 0.0 0.00 0.00 0.00 75 1020.9
20260510004554 60 119 0.0 0.0 0.00 0.00 0.00 76 1020.9
20260510003020 60 131 0.0 0.0 0.00 0.00 0.00 76 1020.9
20260510001525 59 96 0.0 0.0 0.00 0.00 0.00 81 1020.9
20260510000040 59 134 0.0 0.0 0.00 0.00 0.00 81 1020.9
20260509234628 58 110 0.0 0.0 0.00 0.00 0.00 84 1021.0
20260509233005 56 121 0.0 0.0 0.00 0.00 0.00 85 1020.9
20260509231515 56 117 0.0 0.0 0.00 0.00 0.00 87 1020.8
20260509230025 55 122 0.0 0.0 0.00 0.00 0.00 89 1020.8
20260509224545 54 113 0.0 0.0 0.00 0.00 0.00 90 1020.8
20260509223053 53 112 0.0 0.0 0.00 0.00 0.00 91 1020.6
20260509221514 52 106 0.0 0.0 0.00 0.00 0.00 91 1020.5
20260509220034 52 101 0.0 0.0 0.00 0.00 0.00 92 1020.4
20260509214547 51 99 0.0 0.0 0.00 0.00 0.00 92 1020.1
20260509213007 51 165 0.0 0.0 0.00 0.00 0.00 92 1020.0
20260509211540 51 175 0.0 0.0 0.00 0.00 0.00 92 1019.8
20260509210051 50 188 0.0 0.0 0.00 0.00 0.00 92 1019.7
20260509210001 50 188 0.0 0.0 0.00 0.00 0.00 92 1019.7
20260509204517 50 77 0.0 0.0 0.00 0.00 0.00 92 1019.7
20260509203111 51 136 0.0 0.0 0.00 0.00 0.00 92 1019.5
20260509201505 51 136 0.0 0.0 0.00 0.00 0.00 92 1019.4
20260509200027 51 136 0.0 0.0 0.00 0.00 0.00 91 1019.2
20260509194545 51 136 0.0 0.0 0.00 0.00 0.00 91 1019.1
20260509193007 51 136 0.0 0.0 0.00 0.00 0.00 91 1018.9
20260509191518 51 136 0.0 0.0 0.00 0.00 0.00 91 1018.8
20260509190039 51 136 0.0 0.0 0.00 0.00 0.00 92 1018.6
20260509184552 51 136 0.0 0.0 0.00 0.00 0.00 92 1018.4
20260509183023 50 143 0.0 0.0 0.00 0.00 0.00 92 1018.3
20260509181545 50 144 0.0 0.0 0.00 0.00 0.00 91 1018.2
20260509180006 50 144 0.0 0.0 0.00 0.00 0.00 91 1018.1
20260509174531 50 144 0.0 0.0 0.00 0.00 0.00 91 1018.0
20260509173102 50 144 0.0 0.0 0.00 0.00 0.00 91 1018.1
20260509171524 50 144 0.0 0.0 0.00 0.00 0.00 91 1018.2
20260509170037 50 144 0.0 0.0 0.00 0.00 0.00 91 1018.3
20260509164508 0 0.0 0.0 0.00 0.00 0.00 1018.3
20260509163046 0 0.0 0.0 0.00 0.00 0.00 1018.3
20260509161535 0 0.0 0.0 0.00 0.00 0.00 1018.3
20260509160101 0 0.0 0.0 0.00 0.00 0.00 1018.4
20260509154526 0 0.0 0.0 0.00 0.00 0.00 1018.3
20260509153013 0 0.0 0.0 0.00 0.00 0.00 1018.3
20260509151555 0 0.0 0.0 0.00 0.00 0.00 1018.3
20260509150026 0 0.0 0.0 0.00 0.00 0.00 1018.3
20260509144650 0 0.0 0.0 0.00 0.00 0.00 1018.3
20260509143022 0 0.0 0.0 0.00 0.00 0.00 1018.3
20260509141603 0 0.0 0.0 0.00 0.00 0.00 1018.2
20260509141506 0 0.0 0.0 0.00 0.00 0.00 1018.2
20260509140034 51 144 0.0 0.0 0.00 0.00 0.00 86 1018.2
20260509134545 51 144 0.0 0.0 0.00 0.00 0.00 86 1018.0
20260509133016 52 144 0.0 0.0 0.00 0.00 0.00 85 1018.0
20260509131532 52 144 0.0 0.0 0.00 0.00 0.00 85 1018.2
20260509124524 53 144 0.0 0.0 0.00 0.00 0.00 85 1018.3
20260509123052 54 144 0.0 0.0 0.00 0.00 0.00 85 1018.3
20260509121517 54 144 0.0 0.0 0.00 0.00 0.00 85 1018.3
20260509120034 54 144 0.0 0.0 0.00 0.00 0.00 85 1018.3
20260509114557 54 144 0.0 0.0 0.00 0.00 0.00 84 1018.3
20260509113017 54 144 0.0 0.0 0.00 0.00 0.00 84 1018.4
20260509111539 55 144 0.0 0.0 0.00 0.00 0.00 83 1018.4
20260509110054 55 144 0.0 0.0 0.00 0.00 0.00 83 1018.3
20260509104523 55 144 0.0 0.0 0.00 0.00 0.00 83 1018.2
20260509103050 56 145 0.0 0.0 0.00 0.00 0.00 82 1018.2
20260509101520 56 144 0.0 0.0 0.00 0.00 0.00 82 1018.4
20260509100045 56 144 0.0 0.0 0.00 0.00 0.00 81 1018.4
20260509094515 57 147 0.0 0.0 0.00 0.00 0.00 80 1018.3
20260509093039 57 148 0.0 0.0 0.00 0.00 0.00 79 1018.3
20260509091606 58 148 0.0 0.0 0.00 0.00 0.00 78 1018.2
20260509090027 58 148 0.0 0.0 0.00 0.00 0.00 77 1018.1
20260509084548 59 145 0.0 0.0 0.00 0.00 0.00 76 1017.9
20260509083022 59 146 0.0 0.0 0.00 0.00 0.00 75 1017.7
20260509081535 59 146 0.0 0.0 0.00 0.00 0.00 74 1017.5
20260509080058 60 146 0.0 0.0 0.00 0.00 0.00 72 1017.4
20260509074521 61 146 0.0 0.0 0.00 0.00 0.00 70 1017.1
20260509073042 62 146 0.0 0.0 0.00 0.00 0.00 69 1017.0
20260509071502 63 146 0.0 0.0 0.00 0.00 0.00 68 1016.8
20260509070030 63 145 0.0 0.0 0.00 0.00 0.00 67 1016.8
20260509064556 63 148 0.0 0.0 0.00 0.00 0.00 65 1016.6
20260509064504 63 148 0.0 0.0 0.00 0.00 0.00 65 1016.6
20260509063024 64 148 0.0 0.0 0.00 0.00 0.00 65 1016.6
20260509061605 64 141 0.0 0.0 0.00 0.00 0.00 64 1016.5
20260509060012 65 140 0.0 0.0 0.00 0.00 0.00 62 1016.5
20260509054547 66 206 0.0 0.0 0.00 0.00 0.00 62 1016.4
20260509053008 65 193 0.0 0.0 0.00 0.00 0.00 62 1016.5
20260509051533 66 187 0.0 0.0 0.00 0.00 0.00 61 1016.5
20260509050100 66 175 0.0 0.0 0.00 0.00 0.00 62 1016.7
20260509044604 64 157 0.0 0.0 0.00 0.00 0.00 63 1016.7
20260509044502 64 157 0.0 0.0 0.00 0.00 0.00 63 1016.7
20260509043019 63 132 0.0 0.0 0.00 0.00 0.00 66 1016.8
20260509041550 63 120 0.0 0.0 0.00 0.00 0.00 63 1016.8
20260509040012 62 152 0.0 0.0 0.00 0.00 0.00 64 1016.9
20260509034542 64 156 0.0 0.0 0.00 0.00 0.00 63 1017.0